This demonstration page uses our WeatherBlox Daily Observations layout. Learn more.

Hourly Observations for June 29, 2015

Temp ( °F °C ) Dew Point ( °F °C ) Humidity (%) Winds ( mph kmh ) Pressure ( in mb ) Visibility ( mi km ) Precip ( " mm )
12:15 am 00:15 Clear 63 17 55 13 77 77 Calm 29.97 1015 10 16.09344 0 0
12:35 am 00:35 Clear 63 17 54 12 73 73 Calm 29.97 1015 10 16.09344 0 0
12:55 am 00:55 Clear 61 16 55 13 83 83 Calm 30 1016 10 16.09344 0 0
1:15 am 01:15 Clear 61 16 55 13 83 83 Calm 30 1016 10 16.09344 0 0
1:35 am 01:35 Clear 59 15 54 12 82 82 Calm 30 1016 10 16.09344 0 0
1:55 am 01:55 Clear 59 15 54 12 82 82 Calm 30 1016 10 16.09344 0 0
2:15 am 02:15 Clear 59 15 54 12 82 82 Calm 30 1016 10 16.09344 0 0
2:35 am 02:35 Clear 59 15 54 12 82 82 Calm 30 1016 10 16.09344 0 0
2:55 am 02:55 Clear 59 15 54 12 82 82 Calm 30 1016 10 16.09344 0 0
3:15 am 03:15 Clear 57 14 54 12 88 88 Calm 30 1016 10 16.09344 0 0
3:35 am 03:35 Clear 57 14 54 12 88 88 Calm 30 1016 10 16.09344 0 0
3:55 am 03:55 Clear 57 14 54 12 88 88 W 5 7 30 1016 10 16.09344 0 0
4:15 am 04:15 Clear 57 14 54 12 88 88 W 3 6 30 1016 10 16.09344 0 0
4:35 am 04:35 Clear 57 14 54 12 88 88 Calm 30 1016 10 16.09344 0 0
4:55 am 04:55 Clear 57 14 52 11 82 82 Calm 30 1016 10 16.09344 0 0
5:15 am 05:15 Clear 57 14 52 11 82 82 W 3 6 30 1016 10 16.09344 0 0
5:35 am 05:35 Clear 57 14 52 11 82 82 W 5 7 30.03 1017 10 16.09344 0 0
5:55 am 05:55 Clear 57 14 52 11 82 82 Calm 30 1016 10 16.09344 0 0
6:15 am 06:15 Sunny 57 14 52 11 82 82 NW 3 6 30 1016 10 16.09344 0 0
6:35 am 06:35 Sunny 55 13 52 11 88 88 Calm 30.06 1018 10 16.09344 0 0
6:55 am 06:55 Sunny 57 14 54 12 88 88 Calm 30.03 1017 10 16.09344 0 0
7:15 am 07:15 Sunny 61 16 54 12 77 77 Calm 30.03 1017 10 16.09344 0 0
7:35 am 07:35 Sunny 61 16 55 13 83 83 Calm 30.03 1017 10 16.09344 0 0
7:55 am 07:55 Sunny 64 18 59 15 83 83 WNW 3 6 30 1016 10 16.09344 0 0
8:15 am 08:15 Sunny 66 19 59 15 78 78 WNW 3 6 30 1016 10 16.09344 0 0
8:35 am 08:35 Sunny 68 20 59 15 73 73 WNW 3 6 30 1016 10 16.09344 0 0
8:55 am 08:55 Sunny 70 21 59 15 69 69 WNW 5 7 29.97 1015 10 16.09344 0 0
9:15 am 09:15 Sunny 73 23 55 13 53 53 W 5 7 29.97 1015 10 16.09344 0 0
9:35 am 09:35 Sunny 73 23 55 13 53 53 W 6 9 29.97 1015 10 16.09344 0 0
9:55 am 09:55 Sunny 75 24 55 13 50 50 WNW 5 7 29.94 1014 10 16.09344 0 0
10:15 am 10:15 Sunny 77 25 52 11 42 42 NNW 3 6 29.94 1014 10 16.09344 0 0
10:35 am 10:35 Sunny 77 25 55 13 47 47 NW 6 9 29.94 1014 10 16.09344 0 0
10:55 am 10:55 Sunny 79 26 54 12 42 42 NW 7 11 29.94 1014 10 16.09344 0 0
11:15 am 11:15 Sunny 81 27 54 12 39 39 NNW 6 9 29.94 1014 10 16.09344 0 0
11:35 am 11:35 Sunny 81 27 55 13 42 42 WNW 6 9 29.94 1014 10 16.09344 0 0
11:55 am 11:55 Sunny 81 27 55 13 42 42 WNW 6 9 29.94 1014 10 16.09344 0 0
12:15 pm 12:15 Sunny 82 28 55 13 40 40 NW 8 13 29.91 1013 10 16.09344 0 0
12:35 pm 12:35 Sunny 82 28 55 13 40 40 NW 9 15 29.91 1013 10 16.09344 0 0
12:55 pm 12:55 Sunny 84 29 55 13 37 37 NW 8 13 29.91 1013 10 16.09344 0 0
1:15 pm 13:15 Sunny 84 29 55 13 37 37 WNW 10 17 29.88 1012 10 16.09344 0 0
1:35 pm 13:35 Sunny 84 29 55 13 37 37 WNW 7 11 29.88 1012 10 16.09344 0 0
1:55 pm 13:55 Sunny 86 30 54 12 33 33 NNW 7 11 29.88 1012 10 16.09344 0 0
2:15 pm 14:15 Sunny 86 30 55 13 35 35 NNW 8 13 29.88 1012 10 16.09344 0 0
2:35 pm 14:35 Sunny 86 30 55 13 35 35 NW 6 9 29.88 1012 10 16.09344 0 0
2:55 pm 14:55 Sunny 86 30 55 13 35 35 NNW 5 7 29.88 1012 10 16.09344 0 0
3:15 pm 15:15 Sunny 88 31 57 14 35 35 WNW 8 13 29.85 1011 10 16.09344 0 0
3:35 pm 15:35 Sunny 88 31 55 13 33 33 NNW 7 11 29.85 1011 10 16.09344 0 0
3:55 pm 15:55 Sunny 88 31 55 13 33 33 NNW 7 11 29.83 1010 10 16.09344 0 0
4:15 pm 16:15 Sunny 90 32 54 12 29 29 N 9 15 29.83 1010 10 16.09344 0 0
4:35 pm 16:35 Sunny 90 32 54 12 29 29 N 6 9 29.83 1010 10 16.09344 0 0
4:55 pm 16:55 Sunny 90 32 54 12 29 29 N 7 11 29.83 1010 10 16.09344 0 0
5:15 pm 17:15 Sunny 90 32 54 12 29 29 N 7 11 29.83 1010 10 16.09344 0 0
5:35 pm 17:35 Sunny 90 32 54 12 29 29 N 5 7 29.83 1010 10 16.09344 0 0
5:55 pm 17:55 Sunny 90 32 54 12 29 29 N 5 7 29.83 1010 10 16.09344 0 0
6:15 pm 18:15 Sunny 88 31 54 12 31 31 ENE 5 7 29.83 1010 10 16.09344 0 0
6:35 pm 18:35 Sunny 88 31 55 13 33 33 N 6 9 29.83 1010 10 16.09344 0 0
6:55 pm 18:55 Sunny 86 30 59 15 40 40 ENE 7 11 29.85 1011 10 16.09344 0 0
7:15 pm 19:15 Sunny 86 30 59 15 40 40 ENE 6 9 29.85 1011 10 16.09344 0 0
7:35 pm 19:35 Sunny 84 29 61 16 45 45 ENE 5 7 29.85 1011 10 16.09344 0 0
7:55 pm 19:55 Sunny 82 28 63 17 51 51 E 5 7 29.85 1011 10 16.09344 0 0
8:15 pm 20:15 Sunny 82 28 63 17 51 51 E 6 9 29.85 1011 10 16.09344 0 0
8:35 pm 20:35 Sunny 81 27 61 16 51 51 E 5 7 29.85 1011 10 16.09344 0 0
8:55 pm 20:55 Sunny 79 26 61 16 54 54 E 6 9 29.88 1012 10 16.09344 0 0
9:15 pm 21:15 Hazy 77 25 64 18 65 65 SE 3 6 29.88 1012 5 8.04672 0 0
9:35 pm 21:35 Clear 77 25 64 18 65 65 SE 3 6 29.88 1012 7 11.265408 0 0
9:55 pm 21:55 Clear 73 23 64 18 74 74 SE 5 7 29.91 1013 10 16.09344 0 0
10:15 pm 22:15 Clear 73 23 64 18 74 74 SE 5 7 29.91 1013 10 16.09344 0 0
10:35 pm 22:35 Clear 73 23 63 17 69 69 Calm 29.91 1013 10 16.09344 0 0
10:55 pm 22:55 Clear 72 22 63 17 73 73 SSE 3 6 29.91 1013 10 16.09344 0 0
11:15 pm 23:15 Clear 72 22 63 17 73 73 S 3 6 29.94 1014 10 16.09344 0 0
11:35 pm 23:35 Clear 73 23 61 16 65 65 S 3 6 29.94 1014 10 16.09344 0 0
11:55 pm 23:55 Clear 73 23 61 16 65 65 S 5 7 29.91 1013 10 16.09344 0 0

Powered by AerisWeather